Content
SEND FEEDBACK

Daily
Averages
Monthly
Summary
United States of America

BIG TIMBER, MONTANA


Home > North America > United States > Montana
Elevation: 4482 feet     Latitude: 45 48N     Longitude: 109 58W

WEATHER
 
SELECT A DAY
Number of Records: 177,372;   Date Range: 1/1/95 - 7/26/14
 
SHARE

PRINT THIS DATA

[ ← Previous Day ]
WEATHER ALMANAC - MAY 13, 2014
[ Next Day → ]
[ °C ]   °F
Weather ElementAverageHighLow
Temperature47.5 °F60.1 °F (6:53 pm)32 °F (4:53 am)
Dewpoint24.8 °F30 °F (8:53 pm)19 °F (3:53 pm)
Humidity45.5 %76 % (10:53 pm)22 % (3:53 pm)
Barometer30.41 in30.48 in (5:53 am)30.32 in (7:53 pm)
Wind Speed10.2 mph17.3 mph (3:27 am)
Wind Gust25.3 mph (5:53 pm)
Weather ElementAverage
Visibility10 mi
Wind DirectionWSW (235.9 °)

Weather ElementTotal
Precipitation---
Heating Degree Days19 (Base 65)
Averaged from 22 records on May 13, 2014
WEATHER CONDITIONS BREAKOUT
WIND DIRECTION BREAKOUT
WEATHER BY HOUR - MAY 13, 2014
[ °C ]   °F
Local TimeTemperatureDewpointHumidityBarometerVisibilityWind DirectionWind SpeedGust SpeedPrecipitationEventsConditions
1:53 AM36.0 °F25.0 °F64 %30.45 in10.0 miWNW (290°)10.4 mphClear
2:53 AM35.1 °F24.1 °F64 %30.45 in10.0 miCalmClear
3:27 AM34.0 °F25.0 °F70 %30.41 in10.0 miNW (320°)17.3 mphClear
3:53 AM34.0 °F24.1 °F67 %30.46 in10.0 miNW (310°)13.8 mphClear
4:53 AM32.0 °F24.1 °F73 %30.47 in10.0 miNW (310°)15.0 mphClear
5:53 AM32.0 °F24.1 °F73 %30.48 in10.0 miNW (320°)12.7 mphClear
7:53 AM46.0 °F23.0 °F40 %30.44 in10.0 miWSW (250°)13.8 mphClear
8:53 AM48.9 °F24.1 °F38 %30.46 in10.0 miWSW (250°)16.1 mphClear
10:53 AM55.0 °F25.0 °F31 %30.44 in10.0 miWSW (240°)10.4 mphClear
11:53 AM57.0 °F25.0 °F29 %30.43 in10.0 miWSW (240°)10.4 mphClear
12:53 PM55.0 °F25.0 °F31 %30.44 in10.0 miWest (260°)17.3 mph23.0 mphMostly Cloudy
1:53 PM59.0 °F26.1 °F28 %30.40 in10.0 miVariable6.9 mphClear
2:53 PM57.9 °F24.1 °F27 %30.38 in10.0 miWSW (240°)10.4 mph17.3 mphPartly Cloudy
3:53 PM57.9 °F19.0 °F22 %30.39 in10.0 miNW (320°)4.6 mphOvercast
4:53 PM57.9 °F24.1 °F27 %30.39 in10.0 miNNW (340°)10.4 mphOvercast
5:53 PM59.0 °F21.9 °F24 %30.37 in10.0 miWSW (250°)11.5 mph25.3 mphOvercast
6:53 PM60.1 °F21.9 °F23 %30.35 in10.0 miSSE (150°)3.5 mphMostly Cloudy
7:53 PM57.9 °F23.0 °F26 %30.32 in10.0 miWest (270°)10.4 mphOvercast
8:53 PM50.0 °F30.0 °F46 %30.35 in10.0 miESE (110°)6.9 mphMostly Cloudy
9:53 PM46.9 °F28.9 °F50 %30.36 in10.0 miSSE (160°)9.2 mphClear
10:53 PM36.0 °F28.9 °F76 %30.40 in10.0 miSW (230°)5.8 mphPartly Cloudy
11:53 PM37.9 °F30.0 °F73 %30.39 in10.0 miNNW (330°)6.9 mphPartly Cloudy
Hourly data recorded from KLVM, located miles away from Big Timber, Montana







STORIES FROM OUR PARTNERS